Location: Eastlake (historical)
(39.0077°N, 122.6678°W)
Time: 11:34:14
(UTC+00:00)

ALOS - Pass Details

Date: 17 April 2021
Orbit: 682 x 685 km, 97.9° (Epoch: 08 May)

Event Time Altitude Azimuth Distance (km) Brightness Sun altitude
Rises 11:55:51 0° 19° (NNE) 3,054 6.4 -17.8°
Reaches altitude 10° 11:58:12 10° 27° (NNE) 2,133 5.7 -17.4°
Maximum altitude 12:02:38 42° 98° (E) 966 3.4 -16.7°
Drops below altitude 10° 12:07:02 10° 170° (S) 2,118 4.6 -15.9°
Sets 12:09:21 0° 177° (S) 3,028 5.3 -15.5°
